Time,TemperatureF,DewpointF,PressureIn,WindDirection,WindDirectionDegrees,WindSpeedMPH,WindSpeedGustMPH,Humidity,HourlyPrecipIn,Conditions,Clouds,dailyrainin,SoftwareType,DateUTC
2013-04-11 00:08:00,45.1,43.0,29.85,ENE,65,9.0,32.0,93,0.76,,,1.12,weatherlink.com 1.10,2013-04-11 05:08:00,
2013-04-11 00:23:00,44.7,43.0,29.81,North,10,1.0,10.0,93,0.69,,,0.02,weatherlink.com 1.10,2013-04-11 05:23:00,
2013-04-11 00:38:00,44.6,43.0,29.79,NNE,25,8.0,10.0,93,0.57,,,0.04,weatherlink.com 1.10,2013-04-11 05:38:00,
2013-04-11 00:53:00,44.6,43.0,29.79,ENE,74,9.0,10.0,93,0.45,,,0.07,weatherlink.com 1.10,2013-04-11 05:53:00,
2013-04-11 01:08:00,44.4,42.0,29.75,ENE,75,10.0,19.0,92,0.15,,,0.11,weatherlink.com 1.10,2013-04-11 06:08:00,
2013-04-11 01:23:00,44.5,42.0,29.78,North,5,2.0,10.0,92,0.12,,,0.14,weatherlink.com 1.10,2013-04-11 06:23:00,
2013-04-11 01:38:00,44.6,43.0,29.81,NE,34,4.0,4.0,92,0.11,,,0.15,weatherlink.com 1.10,2013-04-11 06:38:00,
2013-04-11 01:53:00,44.3,42.0,29.77,North,350,5.0,10.0,92,0.09,,,0.16,weatherlink.com 1.10,2013-04-11 06:53:00,
2013-04-11 02:08:00,43.8,42.0,29.76,NE,44,4.0,9.0,92,0.06,,,0.17,weatherlink.com 1.10,2013-04-11 07:08:00,
2013-04-11 02:23:00,43.7,42.0,29.75,NE,42,4.0,10.0,93,0.03,,,0.17,weatherlink.com 1.10,2013-04-11 07:23:00,
2013-04-11 02:38:00,43.7,42.0,29.73,NE,34,9.0,17.0,93,0.03,,,0.18,weatherlink.com 1.10,2013-04-11 07:38:00,
2013-04-11 02:54:00,43.9,42.0,29.72,ENE,75,14.0,19.0,93,0.01,,,0.18,weatherlink.com 1.10,2013-04-11 07:54:00,
2013-04-11 03:09:00,44.1,42.0,29.71,NE,54,12.0,18.0,93,0.01,,,0.18,weatherlink.com 1.10,2013-04-11 08:09:00,
2013-04-11 03:24:00,44.4,43.0,29.71,ENE,71,12.0,15.0,93,0.01,,,0.18,weatherlink.com 1.10,2013-04-11 08:24:00,
2013-04-11 03:39:00,44.8,43.0,29.70,NE,42,10.0,12.0,93,0.00,,,0.18,weatherlink.com 1.10,2013-04-11 08:39:00,
2013-04-11 03:54:00,45.2,43.0,29.70,East,85,5.0,17.0,93,0.00,,,0.18,weatherlink.com 1.10,2013-04-11 08:54:00,
2013-04-11 04:09:00,45.6,44.0,29.69,East,89,9.0,13.0,93,0.00,,,0.18,weatherlink.com 1.10,2013-04-11 09:09:00,
2013-04-11 04:24:00,46.1,44.0,29.68,East,81,7.0,12.0,93,0.00,,,0.18,weatherlink.com 1.10,2013-04-11 09:24:00,
2013-04-11 04:39:00,46.4,45.0,29.68,East,96,6.0,14.0,93,0.00,,,0.18,weatherlink.com 1.10,2013-04-11 09:39:00,
2013-04-11 04:54:00,46.6,45.0,29.68,East,93,8.0,13.0,93,0.00,,,0.18,weatherlink.com 1.10,2013-04-11 09:54:00,
2013-04-11 05:09:00,46.9,45.0,29.67,East,92,8.0,14.0,93,0.00,,,0.18,weatherlink.com 1.10,2013-04-11 10:09:00,
2013-04-11 05:24:00,47.0,45.0,29.67,East,87,13.0,15.0,92,0.00,,,0.18,weatherlink.com 1.10,2013-04-11 10:24:00,
2013-04-11 05:39:00,47.0,45.0,29.67,East,98,9.0,15.0,92,0.00,,,0.18,weatherlink.com 1.10,2013-04-11 10:39:00,
2013-04-11 05:54:00,47.1,45.0,29.66,East,94,10.0,15.0,92,0.00,,,0.18,weatherlink.com 1.10,2013-04-11 10:54:00,
2013-04-11 06:09:00,47.2,45.0,29.66,East,96,10.0,16.0,92,0.00,,,0.18,weatherlink.com 1.10,2013-04-11 11:09:00,
2013-04-11 06:24:00,47.4,46.0,29.65,East,101,11.0,15.0,93,0.00,,,0.18,weatherlink.com 1.10,2013-04-11 11:24:00,
2013-04-11 06:39:00,47.6,46.0,29.64,ESE,102,7.0,17.0,93,0.00,,,0.18,weatherlink.com 1.10,2013-04-11 11:39:00,
2013-04-11 06:54:00,47.7,46.0,29.64,ESE,103,8.0,17.0,93,0.00,,,0.18,weatherlink.com 1.10,2013-04-11 11:54:00,
2013-04-11 07:09:00,47.9,46.0,29.64,East,82,11.0,16.0,93,0.00,,,0.18,weatherlink.com 1.10,2013-04-11 12:09:00,
2013-04-11 07:24:00,48.2,47.0,29.63,East,98,9.0,16.0,94,0.00,,,0.18,weatherlink.com 1.10,2013-04-11 12:24:00,
2013-04-11 07:39:00,48.4,47.0,29.62,East,98,15.0,15.0,94,0.00,,,0.18,weatherlink.com 1.10,2013-04-11 12:39:00,
2013-04-11 07:54:00,48.5,47.0,29.63,East,88,9.0,14.0,94,0.00,,,0.18,weatherlink.com 1.10,2013-04-11 12:54:00,
2013-04-11 08:09:00,48.8,47.0,29.63,ESE,103,11.0,13.0,94,0.00,,,0.18,weatherlink.com 1.10,2013-04-11 13:09:00,
2013-04-11 08:24:00,49.3,48.0,29.62,East,90,9.0,14.0,94,0.00,,,0.18,weatherlink.com 1.10,2013-04-11 13:24:00,
2013-04-11 08:39:00,49.8,48.0,29.61,East,90,9.0,14.0,94,0.00,,,0.18,weatherlink.com 1.10,2013-04-11 13:39:00,
2013-04-11 08:54:00,50.0,49.0,29.62,East,86,8.0,14.0,95,0.00,,,0.18,weatherlink.com 1.10,2013-04-11 13:54:00,
2013-04-11 09:09:00,50.5,49.0,29.62,East,101,6.0,11.0,95,0.00,,,0.18,weatherlink.com 1.10,2013-04-11 14:09:00,
2013-04-11 09:24:00,50.9,50.0,29.61,East,99,8.0,11.0,95,0.01,,,0.19,weatherlink.com 1.10,2013-04-11 14:24:00,
2013-04-11 09:40:00,51.0,50.0,29.61,East,81,4.0,12.0,95,0.02,,,0.20,weatherlink.com 1.10,2013-04-11 14:40:00,
2013-04-11 09:55:00,51.2,50.0,29.61,East,84,10.0,13.0,95,0.02,,,0.20,weatherlink.com 1.10,2013-04-11 14:55:00,
2013-04-11 10:10:00,51.5,50.0,29.60,East,88,11.0,11.0,95,0.03,,,0.21,weatherlink.com 1.10,2013-04-11 15:10:00,
2013-04-11 10:25:00,51.9,51.0,29.60,ESE,102,7.0,12.0,95,0.02,,,0.21,weatherlink.com 1.10,2013-04-11 15:25:00,
2013-04-11 10:40:00,52.2,51.0,29.60,ENE,73,7.0,11.0,95,0.01,,,0.21,weatherlink.com 1.10,2013-04-11 15:40:00,
2013-04-11 10:55:00,52.5,51.0,29.60,East,93,6.0,10.0,95,0.02,,,0.22,weatherlink.com 1.10,2013-04-11 15:55:00,
2013-04-11 11:10:00,53.0,52.0,29.61,ESE,108,3.0,9.0,95,0.01,,,0.22,weatherlink.com 1.10,2013-04-11 16:10:00,
2013-04-11 11:25:00,53.6,52.0,29.59,ESE,109,6.0,9.0,95,0.02,,,0.23,weatherlink.com 1.10,2013-04-11 16:25:00,
2013-04-11 11:40:00,54.1,53.0,29.59,ESE,111,8.0,10.0,95,0.02,,,0.23,weatherlink.com 1.10,2013-04-11 16:40:00,
2013-04-11 11:55:00,54.6,53.0,29.59,ESE,112,6.0,10.0,95,0.01,,,0.23,weatherlink.com 1.10,2013-04-11 16:55:00,
2013-04-11 12:10:00,55.7,54.0,29.57,ESE,107,2.0,9.0,95,0.01,,,0.23,weatherlink.com 1.10,2013-04-11 17:10:00,
2013-04-11 12:25:00,56.7,55.0,29.56,ESE,122,4.0,8.0,95,0.00,,,0.23,weatherlink.com 1.10,2013-04-11 17:25:00,
2013-04-11 12:40:00,57.6,56.0,29.56,ESE,118,3.0,9.0,95,0.00,,,0.23,weatherlink.com 1.10,2013-04-11 17:40:00,
2013-04-11 12:55:00,56.6,55.0,29.59,WSW,254,20.0,20.0,95,0.01,,,0.24,weatherlink.com 1.10,2013-04-11 17:55:00,
2013-04-11 13:10:00,54.4,53.0,29.60,WSW,246,14.0,19.0,94,0.01,,,0.24,weatherlink.com 1.10,2013-04-11 18:10:00,
2013-04-11 13:25:00,54.2,53.0,29.60,West,259,13.0,16.0,94,0.01,,,0.24,weatherlink.com 1.10,2013-04-11 18:25:00,
2013-04-11 13:40:00,53.9,52.0,29.59,WSW,254,5.0,15.0,94,0.02,,,0.25,weatherlink.com 1.10,2013-04-11 18:40:00,
2013-04-11 13:55:00,53.8,52.0,29.59,WSW,241,8.0,15.0,93,0.01,,,0.25,weatherlink.com 1.10,2013-04-11 18:55:00,
2013-04-11 14:10:00,53.1,51.0,29.59,WSW,242,10.0,12.0,93,0.01,,,0.25,weatherlink.com 1.10,2013-04-11 19:10:00,
2013-04-11 14:25:00,53.1,51.0,29.59,SW,229,6.0,8.0,93,0.01,,,0.25,weatherlink.com 1.10,2013-04-11 19:25:00,
2013-04-11 14:40:00,53.1,51.0,29.58,SW,235,5.0,9.0,93,0.01,,,0.26,weatherlink.com 1.10,2013-04-11 19:40:00,
2013-04-11 14:55:00,53.1,51.0,29.59,SW,232,7.0,10.0,93,0.01,,,0.26,weatherlink.com 1.10,2013-04-11 19:55:00,
2013-04-11 15:10:00,52.8,51.0,29.60,WSW,238,9.0,13.0,93,0.01,,,0.26,weatherlink.com 1.10,2013-04-11 20:10:00,
2013-04-11 15:25:00,52.4,51.0,29.60,WSW,242,11.0,12.0,93,0.02,,,0.27,weatherlink.com 1.10,2013-04-11 20:25:00,
2013-04-11 15:40:00,52.1,50.0,29.59,SW,222,4.0,12.0,93,0.01,,,0.27,weatherlink.com 1.10,2013-04-11 20:40:00,
2013-04-11 15:55:00,52.1,50.0,29.59,SW,234,5.0,10.0,93,0.03,,,0.29,weatherlink.com 1.10,2013-04-11 20:55:00,
2013-04-11 16:10:00,51.9,50.0,29.58,SSW,210,7.0,8.0,93,0.07,,,0.33,weatherlink.com 1.10,2013-04-11 21:10:00,
2013-04-11 16:25:00,52.1,51.0,29.58,WSW,237,4.0,8.0,94,0.08,,,0.35,weatherlink.com 1.10,2013-04-11 21:25:00,
2013-04-11 16:40:00,52.1,51.0,29.58,SW,229,4.0,8.0,94,0.08,,,0.35,weatherlink.com 1.10,2013-04-11 21:40:00,
2013-04-11 16:55:00,51.7,50.0,29.58,WSW,257,7.0,9.0,93,0.07,,,0.36,weatherlink.com 1.10,2013-04-11 21:55:00,
2013-04-11 17:10:00,51.4,50.0,29.58,West,279,7.0,10.0,93,0.03,,,0.37,weatherlink.com 1.10,2013-04-11 22:10:00,
2013-04-11 17:25:00,51.3,49.0,29.57,WNW,288,2.0,8.0,93,0.05,,,0.40,weatherlink.com 1.10,2013-04-11 22:25:00,
2013-04-11 17:40:00,51.1,49.0,29.58,WSW,256,2.0,6.0,93,0.07,,,0.42,weatherlink.com 1.10,2013-04-11 22:40:00,
2013-04-11 17:55:00,50.8,49.0,29.59,West,265,2.0,7.0,93,0.07,,,0.43,weatherlink.com 1.10,2013-04-11 22:55:00,
2013-04-11 18:10:00,50.3,48.0,29.58,West,269,8.0,9.0,93,0.07,,,0.44,weatherlink.com 1.10,2013-04-11 23:10:00,
2013-04-11 18:25:00,50.2,48.0,29.59,West,263,1.0,6.0,93,0.06,,,0.46,weatherlink.com 1.10,2013-04-11 23:25:00,
2013-04-11 18:40:00,50.0,48.0,29.59,WNW,286,3.0,4.0,93,0.04,,,0.46,weatherlink.com 1.10,2013-04-11 23:40:00,
2013-04-11 18:56:00,49.7,48.0,29.58,WNW,303,0.0,3.0,93,0.04,,,0.47,weatherlink.com 1.10,2013-04-11 23:56:00,
2013-04-11 19:10:00,49.6,48.0,29.57,West,273,0.0,6.0,93,0.03,,,0.47,weatherlink.com 1.10,2013-04-12 00:10:00,
2013-04-11 19:25:00,49.6,48.0,29.57,West,265,1.0,4.0,93,0.01,,,0.47,weatherlink.com 1.10,2013-04-12 00:25:00,
2013-04-11 19:40:00,49.3,47.0,29.57,North,10,3.0,10.0,93,0.01,,,0.47,weatherlink.com 1.10,2013-04-12 00:40:00,
2013-04-11 19:55:00,48.9,47.0,29.57,West,279,6.0,10.0,93,0.00,,,0.47,weatherlink.com 1.10,2013-04-12 00:55:00,
2013-04-11 20:10:00,48.7,47.0,29.58,West,268,2.0,8.0,93,0.00,,,0.47,weatherlink.com 1.10,2013-04-12 01:10:00,
2013-04-11 20:25:00,48.3,46.0,29.56,WNW,287,7.0,11.0,93,0.00,,,0.47,weatherlink.com 1.10,2013-04-12 01:25:00,
2013-04-11 20:40:00,47.8,46.0,29.57,WNW,284,4.0,9.0,93,0.00,,,0.47,weatherlink.com 1.10,2013-04-12 01:40:00,
2013-04-11 20:55:00,47.6,46.0,29.56,West,280,2.0,12.0,93,0.00,,,0.47,weatherlink.com 1.10,2013-04-12 01:55:00,
2013-04-11 21:10:00,47.1,46.0,29.57,West,267,3.0,9.0,94,0.00,,,0.47,weatherlink.com 1.10,2013-04-12 02:10:00,
2013-04-11 21:25:00,46.3,44.0,29.59,West,277,7.0,13.0,93,0.00,,,0.47,weatherlink.com 1.10,2013-04-12 02:25:00,
2013-04-11 21:40:00,45.6,44.0,29.59,West,272,12.0,19.0,93,0.01,,,0.48,weatherlink.com 1.10,2013-04-12 02:40:00,
2013-04-11 21:55:00,43.9,42.0,29.60,West,281,3.0,19.0,93,0.01,,,0.48,weatherlink.com 1.10,2013-04-12 02:55:00,
2013-04-11 22:10:00,43.4,42.0,29.61,West,278,6.0,12.0,93,0.01,,,0.48,weatherlink.com 1.10,2013-04-12 03:10:00,
2013-04-11 22:25:00,43.5,41.0,29.61,WNW,284,6.0,14.0,92,0.01,,,0.48,weatherlink.com 1.10,2013-04-12 03:25:00,
2013-04-11 22:40:00,43.6,42.0,29.62,WSW,246,5.0,11.0,92,0.00,,,0.48,weatherlink.com 1.10,2013-04-12 03:40:00,
2013-04-11 22:55:00,43.5,41.0,29.61,WNW,292,4.0,9.0,92,0.00,,,0.48,weatherlink.com 1.10,2013-04-12 03:55:00,
2013-04-11 23:10:00,42.7,40.0,29.61,West,277,4.0,19.0,89,0.00,,,0.48,weatherlink.com 1.10,2013-04-12 04:10:00,
2013-04-11 23:26:00,42.5,40.0,29.61,West,277,6.0,15.0,89,0.00,,,0.48,weatherlink.com 1.10,2013-04-12 04:26:00,
2013-04-11 23:41:00,42.0,38.0,29.61,WSW,256,5.0,15.0,87,0.00,,,0.48,weatherlink.com 1.10,2013-04-12 04:41:00,
2013-04-11 23:56:00,41.6,38.0,29.62,West,273,6.0,15.0,88,0.00,,,0.48,weatherlink.com 1.10,2013-04-12 04:56:00,